User: anonymous   Login
Location: *
(45.9500°N, 9.0833°E)
Time: 18:27:33
(UTC+00:00)
Language:

Meteor 2-4 Rocket - Orbit

View from above orbital plane
View from above orbital plane
View from above satellite
View from above satellite

Ground track
Ground track

The orbit data is extracted from the following two-line orbital elements,

1 11289U 79021B   21332.88510241  .00000174  00000-0  87169-4 0  9997
2 11289  81.2478  18.0413 0074322 300.6738  58.7123 14.11629030199939
Epoch (UTC): 28 November 2021 21:14:32
Eccentricity: 0.0074322
inclination: 81.2478°
perigee height: 800 km
apogee height: 907 km
right ascension of ascending node: 18.0413°
argument of perigee: 300.6738°
revolutions per day: 14.11629030
mean anomaly at epoch: 58.7123°
orbit number at epoch: 19993

The dashed part of the orbit path shows where the satellite is in the earth's shadow,  

DLR